Terug naar catalogus

STARLINK-34880

ActiefCommunicatieVLEO
NORAD 65327·PAYLOAD·🇺🇸 United States

Gelanceerd Aug 27, 2025 vanaf Cape Canaveral Space Force Station

Loading…

Volgende Passages (komende 24 uur)

TLE

VersSource: CelesTrak SupGP

Epoch: Sep 14, 2026, 21:02 UTC

1 65327C 25189E   26257.87687500  .00028700  00000+0  84832-3 0  2572
2 65327  53.1590  46.0856 0001205  80.6256 117.5139 15.34362806    18

Volg STARLINK-34880 in realtime met AllMySat

Download on the App Store